Regional Weather Roundup
Issued by NWS

Home | Current Version | Previous Version | Graphics & Text | Print | Product List | Glossary On
Versions: 1 2 3 4 5 6 7 8 9 10 11 12 13 14 15 16 17 18 19 20 21 22 23 24 25 26 27
000
ASUS45 KCYS 230710
RWRWY

WYOMING REGIONAL WEATHER ROUNDUP
NATIONAL WEATHER SERVICE CHEYENNE WY
100 AM MDT SAT JUL 23 2016

NOTE:  "FAIR" INDICATES FEW OR NO CLOUDS BELOW 12,000 FEET
WITH NO SIGNIFICANT WEATHER AND/OR OBSTRUCTIONS TO VISIBILITY.

WYZ001-230800-
YELLOWSTONE NATIONAL PARK

CITY           SKY/WX    TMP DP  RH WIND       PRES   REMARKS
LK YELLOWSTONE   N/A     49  26  41 CALM      30.30R
W YELLOWSTONE  NOT AVBL

$$
WYZ002>013-054>058-071-098>099-230800-
NORTHERN WYOMING

CITY           SKY/WX    TMP DP  RH WIND       PRES   REMARKS
JACKSON        FAIR      63  21  20 S7        30.22R
CODY           FAIR      73  27  17 N6        30.03R
GREYBULL       FAIR      73  41  31 NE5       29.93R
WORLAND        FAIR      68  45  43 CALM      29.94R
SHERIDAN       FAIR      84  40  21 SW16      29.87S
BUFFALO        FAIR      79  39  23 S9        29.98S
GILLETTE       FAIR      73  55  53 MISG      29.91F
HULETT         FAIR      77  54  44 S7        29.94S
NEWCASTLE      FAIR      73  50  43 SE13      29.98F

$$
WYZ014>020-022>026-101>103-230800-
CENTRAL WYOMING

CITY           SKY/WX    TMP DP  RH WIND       PRES   REMARKS
BIG PINEY      FAIR      56  31  38 N8        30.27S
PINEDALE       FAIR      50  46  87 NW3       30.29S
DUBOIS         FAIR      55  30  38 NW9       30.25S
LANDER         FAIR      71  43  36 VRB3      30.08S
RIVERTON       FAIR      69  44  40 SW5       30.09S
CASPER         FAIR      67  44  43 W7        30.07S
DOUGLAS          N/A    N/A N/A N/A MISG      30.05F

$$
WYZ021-027>030-104>119-230800-
SOUTHERN WYOMING

CITY           SKY/WX    TMP DP  RH WIND       PRES   REMARKS
EVANSTON       FAIR      67  29  24 CALM      30.30F
KEMMERER         N/A     61  30  31 CALM      30.31S
FORT BRIDGER   FAIR      68  34  28 W10       30.32S
ROCK SPRINGS   FAIR      69  36  29 SW13      30.24R
DIXON          FAIR      57  49  75 CALM      30.29S
RAWLINS        FAIR      72  38  29 SW15      30.23S
SARATOGA       FAIR      63  41  45 S10       30.26S
LARAMIE        FAIR      62  44  51 SW5       30.26S
CHEYENNE       MOCLDY    73  44  35 CALM      30.18S
TORRINGTON     FAIR      69  60  73 SE9       30.00F
PINE BLUFFS    FAIR      66  61  82 S7        30.11F

$$




USA.gov is the U.S. government's official web portal to all federal, state and local government web resources and services.